• In Portugal
  • List of Countries
  • For 7 days
  • Water Temperature
  • Satellite Maps
  • Weather Map
  • Weather Widgets
  • user-avatar
    Login

    Hourly Weather Pokhara

    Today, 20 October, Friday

    Time Temperature Precipitation Wind Pressure Humidity
    00:00 +22°C° 0 mm 1 mps 684 mmHg 69%
    01:00 +22°C° 0 mm 1 mps 684 mmHg 66%
    02:00 +22°C° 0 mm 1 mps 684 mmHg 63%
    03:00 +22°C° 0 mm 1 mps 683 mmHg 60%
    04:00 +22°C° 0 mm 1 mps 683 mmHg 58%
    05:00 +22°C° 0 mm 1 mps 683 mmHg 55%
    06:00 +21°C° 0 mm 2 mps 683 mmHg 50%
    07:00 +24°C° 0 mm 2 mps 683 mmHg 47%
    08:00 +26°C° 0 mm 1 mps 684 mmHg 44%
    09:00 +29°C° 0 mm 1 mps 684 mmHg 41%
    10:00 +30°C° 0 mm 2 mps 684 mmHg 40%
    11:00 +31°C° 0 mm 2 mps 684 mmHg 38%
    12:00 +34°C° 0 mm 2 mps 684 mmHg 36%
    13:00 +32°C° 0 mm 2 mps 683 mmHg 38%
    14:00 +32°C° 0 mm 2 mps 683 mmHg 41%
    15:00 +31°C° 0 mm 3 mps 682 mmHg 44%
    16:00 +29°C° 0 mm 2 mps 682 mmHg 54%
    17:00 +27°C° 0 mm 1 mps 682 mmHg 65%
    18:00 +24°C° 0 mm 1 mps 681 mmHg 75%
    19:00 +24°C° 0.1 mm 1 mps 682 mmHg 77%
    20:00 +23°C° 0.1 mm 1 mps 682 mmHg 78%
    21:00 +23°C° 0.1 mm 1 mps 683 mmHg 79%
    22:00 +23°C° 0 mm 1 mps 683 mmHg 78%
    23:00 +23°C° 0 mm 1 mps 682 mmHg 77%

    Tomorrow, 21 October, Saturday

    Time Temperature Precipitation Wind Pressure Humidity
    00:00 +22°C° 0 mm 1 mps 682 mmHg 77%
    01:00 +22°C° 0 mm 1 mps 682 mmHg 75%
    02:00 +22°C° 0 mm 1 mps 682 mmHg 74%
    03:00 +22°C° 0 mm 1 mps 681 mmHg 73%
    04:00 +22°C° 0 mm 1 mps 681 mmHg 71%
    05:00 +21°C° 0 mm 1 mps 681 mmHg 69%
    06:00 +21°C° 0 mm 1 mps 681 mmHg 68%
    07:00 +23°C° 0 mm 1 mps 681 mmHg 63%
    08:00 +25°C° 0 mm 1 mps 682 mmHg 58%
    09:00 +27°C° 0 mm 1 mps 682 mmHg 54%
    10:00 +28°C° 0 mm 2 mps 682 mmHg 51%
    11:00 +29°C° 0 mm 2 mps 681 mmHg 49%
    12:00 +31°C° 0 mm 3 mps 681 mmHg 46%
    13:00 +30°C° 0 mm 3 mps 680 mmHg 49%
    14:00 +30°C° 0 mm 3 mps 680 mmHg 51%
    15:00 +30°C° 0 mm 3 mps 679 mmHg 54%
    16:00 +28°C° 0.1 mm 2 mps 679 mmHg 66%
    17:00 +26°C° 0.1 mm 1 mps 679 mmHg 77%
    18:00 +24°C° 0.1 mm 1 mps 679 mmHg 89%
    19:00 +24°C° 0.2 mm 1 mps 679 mmHg 90%
    20:00 +21°C° 0.2 mm 0 mps 680 mmHg 90%
    21:00 +21°C° 0.2 mm 0 mps 680 mmHg 91%
    22:00 +21°C° 0.1 mm 0 mps 680 mmHg 91%
    23:00 +20°C° 0.1 mm 0 mps 680 mmHg 90%

    Day after tomorrow, 22 October, Sunday

    Time Temperature Precipitation Wind Pressure Humidity
    00:00 +22°C° 0.1 mm 1 mps 680 mmHg 89%
    01:00 +22°C° 0 mm 1 mps 680 mmHg 87%
    02:00 +22°C° 0 mm 1 mps 680 mmHg 85%
    03:00 +21°C° 0 mm 1 mps 679 mmHg 84%
    04:00 +21°C° 0 mm 1 mps 679 mmHg 79%
    05:00 +21°C° 0 mm 1 mps 679 mmHg 75%
    06:00 +21°C° 0 mm 1 mps 679 mmHg 70%
    07:00 +23°C° 0 mm 1 mps 680 mmHg 68%
    08:00 +25°C° 0 mm 1 mps 681 mmHg 65%
    09:00 +26°C° 0 mm 1 mps 682 mmHg 62%
    10:00 +27°C° 0 mm 1 mps 681 mmHg 62%
    11:00 +28°C° 0 mm 2 mps 681 mmHg 62%
    12:00 +30°C° 0 mm 2 mps 681 mmHg 62%
    13:00 +29°C° 0.2 mm 2 mps 681 mmHg 65%
    14:00 +29°C° 0.2 mm 2 mps 680 mmHg 68%
    15:00 +28°C° 0.2 mm 2 mps 679 mmHg 71%
    16:00 +27°C° 0.2 mm 2 mps 680 mmHg 78%
    17:00 +25°C° 0.2 mm 1 mps 680 mmHg 85%
    18:00 +24°C° 0.2 mm 1 mps 680 mmHg 92%
    19:00 +24°C° 0.2 mm 1 mps 680 mmHg 92%
    20:00 +23°C° 0.2 mm 1 mps 681 mmHg 92%
    21:00 +23°C° 0.2 mm 1 mps 682 mmHg 93%
    22:00 +23°C° 0.2 mm 1 mps 682 mmHg 92%
    23:00 +22°C° 0.2 mm 1 mps 682 mmHg 92%

    23 October, Monday

    Time Temperature Precipitation Wind Pressure Humidity
    00:00 +22°C° 0.2 mm 1 mps 682 mmHg 91%
    01:00 +22°C° 0.1 mm 1 mps 682 mmHg 90%
    02:00 +21°C° 0.1 mm 1 mps 681 mmHg 88%
    03:00 +21°C° 0.1 mm 1 mps 681 mmHg 87%
    04:00 +21°C° 0 mm 1 mps 681 mmHg 86%
    05:00 +21°C° 0 mm 1 mps 682 mmHg 85%
    06:00 +21°C° 0 mm 1 mps 682 mmHg 84%
    07:00 +22°C° 0 mm 1 mps 682 mmHg 80%
    08:00 +23°C° 0 mm 1 mps 683 mmHg 77%
    09:00 +24°C° 0 mm 1 mps 683 mmHg 74%
    10:00 +25°C° 0.1 mm 2 mps 683 mmHg 71%
    11:00 +26°C° 0.1 mm 2 mps 683 mmHg 68%
    12:00 +27°C° 0.1 mm 3 mps 683 mmHg 65%
    13:00 +27°C° 0.2 mm 3 mps 682 mmHg 64%
    14:00 +27°C° 0.2 mm 3 mps 682 mmHg 63%
    15:00 +27°C° 0.2 mm 3 mps 681 mmHg 63%
    16:00 +25°C° 0.2 mm 2 mps 681 mmHg 70%
    17:00 +23°C° 0.2 mm 1 mps 681 mmHg 78%
    18:00 +22°C° 0.2 mm 1 mps 681 mmHg 86%
    19:00 +21°C° 0.1 mm 1 mps 682 mmHg 85%
    20:00 +21°C° 0.1 mm 1 mps 682 mmHg 85%
    21:00 +20°C° 0.1 mm 1 mps 683 mmHg 85%
    22:00 +20°C° 0 mm 1 mps 683 mmHg 83%
    23:00 +19°C° 0 mm 1 mps 683 mmHg 80%

    24 October, Tuesday

    Time Temperature Precipitation Wind Pressure Humidity
    00:00 +19°C° 0 mm 1 mps 683 mmHg 78%
    01:00 +19°C° 0 mm 1 mps 682 mmHg 75%
    02:00 +18°C° 0 mm 1 mps 682 mmHg 72%
    03:00 +18°C° 0 mm 1 mps 682 mmHg 69%
    04:00 +18°C° 0 mm 1 mps 682 mmHg 66%
    05:00 +16°C° 0 mm 1 mps 682 mmHg 64%
    06:00 +16°C° 0 mm 1 mps 682 mmHg 61%
    07:00 +18°C° 0 mm 2 mps 683 mmHg 58%
    08:00 +20°C° 0 mm 2 mps 684 mmHg 54%
    09:00 +23°C° 0 mm 2 mps 685 mmHg 50%
    10:00 +24°C° 0.2 mm 2 mps 685 mmHg 50%
    11:00 +26°C° 0.2 mm 2 mps 685 mmHg 50%
    12:00 +27°C° 0.2 mm 3 mps 685 mmHg 49%
    13:00 +27°C° 0.3 mm 2 mps 684 mmHg 51%
    14:00 +26°C° 0.3 mm 2 mps 683 mmHg 53%
    15:00 +26°C° 0.3 mm 2 mps 683 mmHg 55%
    16:00 +24°C° 0.4 mm 2 mps 683 mmHg 60%
    17:00 +22°C° 0.4 mm 1 mps 683 mmHg 66%
    18:00 +21°C° 0.4 mm 1 mps 682 mmHg 71%
    19:00 +20°C° 0.2 mm 1 mps 683 mmHg 71%
    20:00 +19°C° 0.2 mm 1 mps 683 mmHg 71%
    21:00 +19°C° 0.2 mm 1 mps 684 mmHg 71%
    22:00 +19°C° 0.1 mm 1 mps 684 mmHg 70%
    23:00 +18°C° 0.1 mm 1 mps 684 mmHg 69%

    25 October, Wednesday

    Time Temperature Precipitation Wind Pressure Humidity
    00:00 +18°C° 0.1 mm 1 mps 684 mmHg 68%
    01:00 +18°C° 0.2 mm 1 mps 684 mmHg 67%
    02:00 +18°C° 0.2 mm 1 mps 684 mmHg 66%
    03:00 +16°C° 0.2 mm 1 mps 683 mmHg 66%
    04:00 +16°C° 0.1 mm 1 mps 684 mmHg 64%
    05:00 +16°C° 0.1 mm 2 mps 684 mmHg 63%
    06:00 +16°C° 0.1 mm 2 mps 684 mmHg 61%
    07:00 +19°C° 0 mm 1 mps 685 mmHg 56%
    08:00 +21°C° 0 mm 1 mps 686 mmHg 52%
    09:00 +23°C° 0 mm 1 mps 687 mmHg 47%
    10:00 +24°C° 0 mm 1 mps 686 mmHg 47%
    11:00 +26°C° 0 mm 1 mps 686 mmHg 46%
    12:00 +27°C° 0 mm 2 mps 686 mmHg 45%
    13:00 +27°C° 0 mm 2 mps 686 mmHg 48%
    14:00 +27°C° 0 mm 2 mps 685 mmHg 50%
    15:00 +27°C° 0 mm 2 mps 684 mmHg 53%
    16:00 +25°C° 0 mm 1 mps 684 mmHg 60%
    17:00 +23°C° 0 mm 1 mps 684 mmHg 67%
    18:00 +21°C° 0 mm 1 mps 684 mmHg 74%
    19:00 +20°C° 0 mm 1 mps 684 mmHg 73%
    20:00 +20°C° 0 mm 1 mps 685 mmHg 72%
    21:00 +18°C° 0 mm 2 mps 685 mmHg 70%
    22:00 +18°C° 0 mm 2 mps 685 mmHg 68%
    23:00 +19°C° 0 mm 1 mps 685 mmHg 66%
    Show more